Spokane, WA

3:26 PM PDT on June 22, 2017 (GMT -0700)
Spokane International

Weather History for KGEG - February, 2013

Change the Weather History Date:

Friday, February 8, 2013

  Actual Average Record
Temperature  
Mean Temperature 34 °F 32 °F  
Max Temperature 38 °F 38 °F 54 °F (2015)
Min Temperature 29 °F 26 °F -12 °F (1929)
Degree Days  
Heating Degree Days 31 33  
Month to date heating degree days 248 266  
Since 1 July heating degree days 3916 4199  
Cooling Degree Days 0 0  
Month to date cooling degree days 0 0  
Year to date cooling degree days 0 0  
Moisture  
Dew Point 30 °F    
Average Humidity 89    
Maximum Humidity 96    
Minimum Humidity 82    
Precipitation  
Precipitation 0.02 in 0.04 in 0.79 in (1948)
Month to date precipitation 0.04 0.37  
Year to date precipitation 1.67 2.16  
Snow  
Snow 0.30 in 0.20 in 6.40 in (1948)
Month to date snowfall 0.3 2.2  
Since 1 July snowfall 38.5 35.7  
Snow Depth 0.00 in    
Sea Level Pressure  
Sea Level Pressure 30.09 in    
Wind  
Wind Speed 5 mph (SW)    
Max Wind Speed 10 mph    
Max Gust Speed 14 mph    
Visibility 6 miles    
Events Fog , Snow    
T = Trace of Precipitation, MM = Missing Value Source: NWS Daily Summary

Daily Weather History Graph

Daily Weather History Graph

Search for Another Location

Airport or City:

Trip Planner

Search our weather history database for the weather conditions in past years. The results will help you decide how hot, cold, wet, or windy it might be!

Date:

Astronomy

Feb. 08, 2013 Rise Set
Actual Time 7:06 AM PST 5:02 PM PST
Civil Twilight 6:34 AM PST 5:35 PM PST
Nautical Twilight 5:57 AM PST 6:11 PM PST
Astronomical Twilight 5:21 AM PST 6:47 PM PST
Moon 5:41 AM PST (2/8) 3:39 PM PST (2/8)
Length of Visible Light 11h 01m
Length of Day
9h 56m
Waning Crescent, 3% of the Moon is Illuminated
Feb 8
Waning Crescent
Feb 9
New
Feb 17
First Quarter
Feb 25
Full
Mar 4
Last Quarter

Hourly Weather History & Observations

Time (PST) Temp. Windchill Dew Point Humidity Pressure Visibility Wind Dir Wind Speed Gust Speed Precip Events Conditions
12:53 AM 33.1 °F 30.0 °F 30.9 °F 92% 30.05 in 5.0 mi South 3.5 mph - 0.00 in Snow Light Snow
1:12 AM 33.8 °F 29.6 °F 32.0 °F 93% 30.00 in 6.0 mi SSE 4.6 mph - 0.00 in Snow Light Snow
1:38 AM 33.8 °F - 32.0 °F 93% 30.01 in 5.0 mi Calm Calm - 0.00 in Snow Light Snow
1:53 AM 33.1 °F 28.7 °F 32.0 °F 96% 30.06 in 5.0 mi South 4.6 mph - 0.00 in Snow Light Snow
2:15 AM 33.8 °F 29.6 °F 32.0 °F 93% 30.02 in 7.0 mi South 4.6 mph - 0.01 in Snow Light Snow
2:35 AM 33.8 °F 29.6 °F 32.0 °F 93% 30.02 in 4.0 mi SSW 4.6 mph - 0.01 in Snow Light Snow
2:41 AM 33.8 °F 29.6 °F 32.0 °F 93% 30.02 in 2.0 mi SSW 4.6 mph - 0.01 in Snow Light Snow
2:53 AM 33.1 °F 26.9 °F 32.0 °F 96% 30.07 in 2.0 mi SSW 6.9 mph - 0.01 in Snow Light Snow
3:24 AM 33.8 °F 29.6 °F 30.2 °F 87% 30.02 in 4.0 mi SSW 4.6 mph - 0.01 in Snow Light Snow
3:53 AM 32.0 °F 27.5 °F 30.0 °F 92% 30.08 in 7.0 mi SW 4.6 mph - 0.01 in Snow Light Snow
4:53 AM 32.0 °F 26.4 °F 30.0 °F 92% 30.09 in 7.0 mi WSW 5.8 mph - 0.00 in Snow Light Snow
5:12 AM 32.0 °F 27.5 °F 30.2 °F 93% 30.04 in 7.0 mi West 4.6 mph - 0.00 in Snow Light Snow
5:53 AM 32.0 °F 27.5 °F 30.0 °F 92% 30.10 in 7.0 mi SSW 4.6 mph - 0.00 in   Overcast
6:53 AM 32.0 °F 28.7 °F 30.0 °F 92% 30.11 in 10.0 mi SSW 3.5 mph - N/A   Overcast
7:53 AM 32.0 °F 26.4 °F 30.0 °F 92% 30.13 in 8.0 mi West 5.8 mph - N/A   Overcast
8:07 AM 32.0 °F 27.5 °F 30.2 °F 93% 30.07 in 8.0 mi WNW 4.6 mph - N/A Fog Patches of Fog
8:16 AM 32.0 °F 26.4 °F 30.2 °F 93% 30.08 in 2.0 mi NW 5.8 mph - N/A   Overcast
8:25 AM 32.0 °F 26.4 °F 30.2 °F 93% 30.08 in 1.5 mi NW 5.8 mph - N/A   Overcast
8:47 AM 32.0 °F 26.4 °F 30.2 °F 93% 30.08 in 0.2 mi WNW 5.8 mph - N/A   Overcast
8:53 AM 32.0 °F 26.4 °F 30.0 °F 92% 30.14 in 0.5 mi WNW 5.8 mph - N/A   Overcast
9:23 AM 32.0 °F - 30.2 °F 93% 30.08 in 0.5 mi Calm Calm - N/A   Overcast
9:46 AM 33.8 °F - 30.2 °F 87% 30.08 in 2.5 mi Calm Calm - N/A   Overcast
9:53 AM 33.1 °F - 30.9 °F 92% 30.14 in 2.5 mi Calm Calm - N/A   Mostly Cloudy
10:24 AM 33.8 °F - 32.0 °F 93% 30.09 in 3.0 mi Calm Calm - N/A   Overcast
10:53 AM 35.1 °F - 32.0 °F 89% 30.14 in 3.0 mi Calm Calm - N/A   Overcast
11:53 AM 36.0 °F 33.3 °F 32.0 °F 86% 30.13 in 8.0 mi NNW 3.5 mph - N/A   Overcast
12:53 PM 36.0 °F - 32.0 °F 86% 30.12 in 10.0 mi Calm Calm - N/A   Mostly Cloudy
1:53 PM 37.0 °F 33.3 °F 32.0 °F 82% 30.11 in 10.0 mi South 4.6 mph - N/A   Mostly Cloudy
2:53 PM 37.0 °F 31.6 °F 32.0 °F 82% 30.11 in 10.0 mi SSE 6.9 mph - N/A   Mostly Cloudy
3:53 PM 36.0 °F 31.1 °F 32.0 °F 86% 30.10 in 10.0 mi SE 5.8 mph - N/A   Mostly Cloudy
4:53 PM 36.0 °F 33.3 °F 30.9 °F 82% 30.11 in 10.0 mi SW 3.5 mph - N/A   Scattered Clouds
5:53 PM 33.1 °F 30.0 °F 28.9 °F 85% 30.12 in 10.0 mi SSW 3.5 mph - N/A   Scattered Clouds
6:53 PM 32.0 °F 26.4 °F 28.9 °F 88% 30.12 in 10.0 mi SW 5.8 mph - N/A   Mostly Cloudy
7:53 PM 30.0 °F 26.5 °F 28.0 °F 92% 30.12 in 10.0 mi SW 3.5 mph - N/A   Mostly Cloudy
8:53 PM 30.9 °F 24.3 °F 27.0 °F 85% 30.12 in 10.0 mi SSW 6.9 mph - N/A   Mostly Cloudy
9:53 PM 32.0 °F 24.8 °F 28.9 °F 88% 30.12 in 10.0 mi SSW 8.1 mph - N/A   Mostly Cloudy
10:53 PM 30.0 °F 23.2 °F 28.0 °F 92% 30.12 in 10.0 mi SW 6.9 mph - N/A   Scattered Clouds
11:26 PM 30.2 °F 23.4 °F 28.4 °F 93% 30.06 in 7.0 mi SSW 6.9 mph - N/A   Mostly Cloudy
11:53 PM 28.9 °F 20.4 °F 28.0 °F 96% 30.12 in 7.0 mi SW 9.2 mph - N/A Fog Patches of Fog